Location: Zihuatanejo
(17.6330°N, 101.5500°W)
Time: 11:02:28
(UTC-05:00)

Daily predictions for brighter satellites

Satellite Brightness Start Highest point End
(mag) Time Altitude Azimuth Time Altitude Azimuth Time Altitude Azimuth
Resurs 1-3 4.2 20:35:09 10° SE 20:39:13 38° ENE 20:43:16 10° N
Cosmos 1420 Rocket 4.1 20:36:26 10° N 20:41:36 59° ENE 20:46:44 10° SSE
Cosmos 1975 3.0 20:38:05 10° N 20:41:59 52° E 20:45:52 10° SSE
SL-16 R/B 2.4 20:37:17 10° SSW 20:42:55 83° WNW 20:48:35 10° NNE
Cosmos 2098 Rocket 4.0 20:42:19 10° NNE 20:46:10 33° E 20:50:55 10° SSE
ATLAS CENTAUR Rocket 3.4 20:44:28 10° W 20:48:42 57° N 21:01:44 10° ENE
Mugunghwa Rocket 4.1 20:43:01 10° SW 20:49:10 55° SSE 20:55:24 10° ENE
Cosmos 1725 Rocket 4.0 20:45:25 10° N 20:51:39 77° E 20:57:50 10° S
Cosmos 494 Rocket 3.9 20:47:54 10° S 20:53:00 81° ESE 20:58:06 10° NNE
Cosmos 1500 4.0 20:50:09 10° NNE 20:53:41 33° E 20:57:12 10° SSE
SL-24 R/B 4.3 20:49:57 10° S 20:54:08 74° W 20:58:36 10° NNW
Atlas Centaur 2 3.8 20:49:54 10° W 20:55:59 43° NNW 21:03:24 10° NE
USA 186 3.8 20:55:47 10° E 20:56:14 11° ENE 20:57:00 10° ENE
FREGAT/IRIS 4.2 20:59:53 10° S 21:02:51 38° W 21:05:49 10° NNW
Cosmos 1315 Rocket 4.1 20:59:30 10° NNW 21:03:19 43° W 21:07:06 10° SSW
RESURS DK-1 4.1 20:59:40 10° NW 21:03:20 31° WSW 21:06:58 10° SSW
Skynet4D Del rocket 3.6 21:01:44 10° WNW 21:07:29 74° SSW 21:11:34 18° ESE
Palapa B4 Rocket 2.9 21:05:32 10° W 21:09:38 60° SSW 21:11:57 21° ESE
Cosmos 1743 3.6 21:07:26 10° NNE 21:10:48 29° E 21:12:32 20° SE
METEOR-M 4.1 21:05:56 10° SSE 21:11:16 80° ENE 21:16:37 10° N
Cosmos 1603 3.7 21:06:41 10° S 21:12:12 59° ESE 21:17:42 10° NNE
ATLAS 5 CENTAUR R/B 0.7 21:10:06 10° W 21:12:53 63° N 21:15:53 14° E
Meteor 1-23 Rocket 4.2 21:09:27 10° S 21:15:01 70° E 21:20:39 10° NNE
ARIANE 5 R/B 3.7 21:12:44 10° SSW 21:15:30 19° SSE 21:17:49 16° SE
H-2A R/B 4.1 21:10:24 10° SSW 21:16:37 15° S 21:18:45 13° SSE
ARIANE 44L R/B 4.0 21:16:25 10° SW 21:17:22 11° SSW 21:18:07 10° S
Blok-2BL 4.4 21:15:03 10° NNW 21:20:41 61° ENE 21:23:18 24° SE
OTV 4 0.4 21:18:17 10° NW 21:21:14 73° NE 21:22:11 38° ESE
MINOTAUR IV R/B 4.5 21:19:23 10° NNW 21:23:51 89° ENE 21:27:10 18° SSE
FENGYUN 3A 4.0 21:21:00 20° SE 21:24:25 45° ENE 21:29:31 10° N
Cosmos 2058 Rocket 3.8 21:21:35 10° NNE 21:25:29 32° E 21:26:36 28° ESE
Aureole 2 Rocket 4.0 21:22:08 10° SSW 21:26:09 45° WNW 21:29:52 10° N
Delta 198 3.2 21:22:22 10° SW 21:26:13 52° SSE 21:27:29 33° ESE
COSMOS 2455 2.7 21:20:43 10° SSW 21:26:39 70° ESE 21:32:37 10° NNE
FengYun 1-2 T 4.3 21:23:18 10° S 21:28:48 81° WSW 21:34:18 10° NNW
Meteor 2-4 Rocket 3.9 21:23:22 10° S 21:29:08 81° W 21:35:03 10° N
Cosmos 2233 Rocket 4.0 21:23:47 10° N 21:30:00 83° W 21:36:08 10° S
Cosmos 1844 Rocket 4.4 21:28:49 10° NW 21:33:38 30° WSW 21:38:26 10° SSW
Cosmos 1943 3.8 21:32:52 26° SE 21:34:41 32° ESE 21:39:39 10° NE
Cosmos 1331 Rocket 4.3 21:29:58 10° N 21:34:53 44° ENE 21:36:40 32° ESE
BREEZE-M R/B 3.5 21:32:07 10° NW 21:35:51 79° SW 21:39:50 25° SE
H-2A R/B 2.8 21:35:57 39° SE 21:37:11 59° ENE 21:41:04 10° N
H-2A R/B 3.4 21:39:26 22° ENE 21:39:26 22° ENE 21:42:22 10° NNE
Cosmos 2297 3.8 21:35:48 10° N 21:41:24 57° ENE 21:43:43 34° SE
Delta 168 4.4 21:38:57 10° NW 21:41:42 24° N 21:44:00 15° NE
Cosmos 1464 Rocket 4.1 21:37:15 10° N 21:43:12 50° E 21:45:45 32° SE
Cosmos 1606 Rocket 3.6 21:39:01 10° N 21:43:24 77° W 21:45:59 24° S
ATLAS 3B R/B 3.0 21:36:47 10° S 21:44:11 55° ESE 21:51:38 10° NE
deb Chang Zheng 4 3.5 21:39:57 10° NNE 21:44:18 88° E 21:48:01 14° SSW
Cosmos 1626 Rocket 3.5 21:44:53 36° SSE 21:46:33 66° E 21:50:56 10° NNE
Cosmos 1072 Rocket 4.5 21:45:00 10° N 21:51:17 69° E 21:54:31 31° SSE
ERS-1 Rocket 3.0 21:57:05 51° ESE 21:57:43 55° ENE 22:02:36 10° N
GPS 2-17 Rocket1 2.8 21:54:04 10° WSW 21:58:29 72° SSE 21:58:37 71° SSE
ALOS 2.8 22:00:20 29° SSW 22:02:31 56° W 22:07:05 10° NNW
Cosmos 2228 3.1 21:58:22 10° N 22:02:25 62° ENE 22:02:25 62° ENE
Cosmos 2034 Rocket 4.1 21:57:03 10° N 22:03:14 56° E 22:04:24 49° ESE
Hubble Space Telescope 2.6 22:01:10 10° W 22:04:05 21° SW 22:04:05 21° SW
Envisat 4.1 22:08:34 30° NE 22:08:34 30° NE 22:12:03 10° NNE
ATLAS 3B CENTAUR R/B 3.5 22:04:42 10° W 22:09:04 36° SSW 22:10:58 32° SSE
GPS 2-15 Rocket1 3.2 22:12:18 10° W 22:16:53 79° NW 22:16:53 79° NW
APEX 4.1 22:12:40 10° N 22:17:44 67° ENE 22:17:52 67° E
UNK 4.2 22:12:34 10° NNE 22:18:12 75° ESE 22:18:56 66° SSE
Cosmos 2278 Rocket 4.1 22:14:18 10° NW 22:18:46 24° WSW 22:22:40 12° SSW
ARIANE DEB (SYLDA) 4.2 22:19:05 10° SW 22:21:37 27° SSW 22:21:37 27° SSW
Cosmos 1666 4.1 22:23:57 10° NNW 22:26:38 38° NW 22:26:38 38° NW
Cosmos 2369 Rocket 4.5 22:28:05 10° NE 22:28:41 11° NE 22:28:41 11° NE
Mugunghwa Rocket 4.4 22:38:40 10° W 22:44:52 58° NNW 22:46:07 50° NNE
Atlas Centaur 2 4.3 22:40:17 10° WNW 22:46:53 32° N 22:52:20 16° NE
SeaSat 1 4.3 23:01:18 23° N 23:01:18 23° N 23:03:17 10° N
Milstar 3 Cent rocket 3.3 23:00:38 10° WNW 23:04:51 40° WNW 23:04:51 40° WNW
